Weather in Rybnoye

Russia / Kurgan Oblast     54°23′54″N   63°30′39″E
temp.,
°C
wind,
m/s
gust,
m/s
humid.,
%
clouds,
%
prec.,
mm/h
press.,
hPa
HPBL,
m
1 december, wed
wed123:00−4s71773100 0.0 1016318
02:00−3s81973100 0.0 1014390
05:00−2ssw71776100 0.0 1013398
08:00−1s81885100 1.1 1012438
11:00−1s91884100 2.1 1011428
14:000s71886100 1.4 1010435
17:000s71880100 1.4 1008425
20:00+1s8198096 0.0 1006472
2 december, thu
thu223:00+2s92275100 0.0 1003565
02:00+2s81979100 0.0 1002557
05:00+1s7168180 0.0 1000499
08:000ssw7158639 0.0 1000393
11:00+1ssw51090100 0.0 1000312
14:00+1sw499398 0.0 1001242
17:00+1w4995100 0.0 1003238
20:00−3wnw41189100 0.0 1005209
3 december, fri
fri323:00−6w39885 0.0 1007124
02:00−7wsw38925 0.0 1009111
05:00−7wsw512895 0.0 1010212
08:00−6wsw61389100 0.0 1012264
11:00−5wsw5128998 0.0 1013312
14:00−4wsw612875 0.0 1014404
17:00−5sw512886 0.0 1016263
20:00−6wsw512885 0.0 1018235
4 december, sat
sat423:00−6wsw41191100 0.0 1019214
02:00−7sw49935 0.0 1021140
05:00−7wsw49935 0.0 1023121
08:00−7sw36925 0.0 102575
11:00−5ssw489131 0.0 1025124
14:00−2ssw4109010 0.0 1025195
17:00−4ssw4119566 0.0 1025178
20:00−3sw411955 0.0 1025189
5 december, sun
sun523:00−2sw513925 0.0 1024249
02:00−2sw616885 0.0 1023307
05:00−2sw61584100 0.0 1022306
08:00−3sw6148565 0.0 1021261
11:00−2sw6148480 0.0 1021294
14:00−1sw6148289 0.0 1020314
17:00−4sw5128775 0.0 1020220
20:00−5wsw379288 0.0 1021127